Location: Huberhof
(49.2050°N, 7.4980°E)
Time: 23:18:52
(UTC+00:00)

Cosmos 220 Rocket - Pass Details

Date: 29 October 2020
Orbit: 574 x 617 km, 74.0° (Epoch: 26 November)

Event Time Altitude Azimuth Distance (km) Brightness Sun altitude
Rises 17:45:43 0° 192° (SSW) 2,835 7.7 -15.6°
Reaches altitude 10° 17:47:57 10° 189° (S) 1,944 6.7 -15.9°
Maximum altitude 17:52:14 61° 109° (ESE) 693 4.0 -16.6°
Enters shadow 17:55:49 15° 31° (NNE) 1,677 6.0 -17.2°
